Hourly Data Report for October 10, 2015

All times are specified in Local Standard Time (LST). Add 1 hour to adjust for Daylight Saving Time where and when it is observed.

KUGAARUK CLIMATE
NUNAVUT

68°32'15.060" N
89°47'47.020" W
15.80 m
2303094
71407
NBB

Download Data

Hourly Data (October 2015)
Hourly Data Report for October 10, 2015
Temp Definition
°C
Dew Point Temp Definition
°C
Rel Hum Definition
%
Wind Dir Definition
10's deg

Wind Spd Definition
km/h
Visibility Definition
km
Stn Press Definition
kPa
Hmdx Definition


Wind Chill Definition


Weather Definition


TIME
00:00 -15.1 -16.6 88 7 2   100.95   -17 LegendNANA
01:00 -15.2 -16.9 87 8 2   100.96   -17 LegendNANA
02:00 -15.5 -17.2 87 0 1   100.97   -16 LegendNANA
03:00 -14.8 -16.2 89 1 1   100.98   -16 LegendNANA
04:00 -12.8 -14.2 89 24 10   100.98   -19 LegendNANA
05:00 -15.0 -16.5 88 19 2   100.97   -16 LegendNANA
06:00 -14.6 -16.1 88 21 5   100.94   -18 LegendNANA
07:00 -14.0 -15.7 87 20 3   100.91   -16 LegendNANA
08:00 -15.4 -17.3 86 0 1   100.91   -16 LegendNANA
09:00 -14.1 -15.8 87 6 3   100.91   -16 LegendNANA
10:00 -11.8 -13.4 88 5 2   100.90   -13 LegendNANA
11:00 -10.3 -12.0 87 0 1   100.88   -11 LegendNANA
12:00 -9.4 -12.0 81 6 4   100.86   -12 LegendNANA
13:00 -10.3 -12.8 82 15 7   100.85   -14 LegendNANA
14:00 -10.4 -11.5 91 7 7   100.83   -14 LegendNANA
15:00 -11.9 -13.1 91 9 6   100.79   -16 LegendNANA
16:00 -12.4 -13.5 92 10 8   100.77   -17 LegendNANA
17:00 -12.8 -13.9 91 6 6   100.76   -17 LegendNANA
18:00 -15.3 -17.0 87 6 4   100.75   -18 LegendNANA
19:00 -15.8 -17.5 87 4 1   100.74   -17 LegendNANA
20:00 -16.0 -17.7 87   0   100.71     LegendNANA
21:00 -16.9 -18.8 86 0 1   100.71   -18 LegendNANA
22:00 -17.5 -19.3 86 0 1   100.70   -18 LegendNANA
23:00 -17.9 -19.8 85   0   100.70     LegendNANA

Notes on Data Quality.

Legend

  • E = Estimated
  • M = Missing
  • NA = Not Available
  • ‡ = Partner data that is not subject to review by the National Climate Archives
Date modified: